Weather History for PAPG - May, 2015

Change the Weather History Date:

Wednesday, May 13, 2015

  Actual Average Record
Temperature  
Mean Temperature 53 °F -  
Max Temperature 64 °F 51 °F 66 °F (1993)
Min Temperature 42 °F 37 °F 30 °F (2006)
Degree Days  
Heating Degree Days 12    
Growing Degree Days 3 (Base 50)    
Moisture  
Dew Point 40 °F    
Average Humidity 63    
Maximum Humidity 82    
Minimum Humidity 39    
Precipitation  
Precipitation 0.00 in - - ()
Sea Level Pressure  
Sea Level Pressure 29.88 in    
Wind  
Wind Speed 4 mph (ENE)    
Max Wind Speed 8 mph    
Max Gust Speed -    
Visibility 10 miles    
Events      
Averages and records for this station are not official NWS values.
T = Trace of Precipitation, MM = Missing Value Source: NWS Daily Summary

Daily Weather History Graph

Daily Weather History Graph

Search for Another Location

Airport or City:

Trip Planner

Search our weather history database for the weather conditions in past years. The results will help you decide how hot, cold, wet, or windy it might be!

Date:

Astronomy

May. 13, 2015 Rise Set
Actual Time 4:38 AM AKDT 8:59 PM AKDT
Civil Twilight 3:47 AM AKDT 9:50 PM AKDT
Nautical Twilight 2:27 AM AKDT 11:12 PM AKDT
Astronomical Twilight Sun does not rise Sun does not rise
Moon 3:02 AM AKDT (5/13) 3:07 PM AKDT (5/13)
Length of Visible Light 18h 03m
Length of Day
16h 20m
Waning Crescent, 24% of the Moon is Illuminated
May 13
Waning Crescent
May 17
New
May 25
First Quarter
Jun 2
Full
Jun 9
Last Quarter

Hourly Weather History & Observations

Time (AKDT) Temp. Windchill Dew Point Humidity Pressure Visibility Wind Dir Wind Speed Gust Speed Precip Events Conditions
12:16 AM 48.2 °F - 39.2 °F 71% 29.78 in 10.0 mi WSW 3.5 mph - N/A   Clear
12:36 AM 46.4 °F - 39.2 °F 76% 29.78 in 10.0 mi Calm Calm - N/A   Clear
12:56 AM 46.4 °F 45.2 °F 39.2 °F 76% 29.79 in 10.0 mi WSW 3.5 mph - N/A   Clear
1:16 AM 46.4 °F 44.3 °F 39.2 °F 76% 29.79 in 10.0 mi West 4.6 mph - N/A   Clear
1:36 AM 46.4 °F 45.2 °F 39.2 °F 76% 29.80 in 10.0 mi SW 3.5 mph - N/A   Clear
1:56 AM 46.4 °F - 39.2 °F 76% 29.81 in 10.0 mi Calm Calm - N/A   Clear
2:16 AM 44.6 °F 43.1 °F 37.4 °F 76% 29.81 in 10.0 mi SE 3.5 mph - N/A   Clear
2:36 AM 44.6 °F 43.1 °F 37.4 °F 76% 29.82 in 10.0 mi SW 3.5 mph - N/A   Clear
2:56 AM 44.6 °F - 39.2 °F 81% 29.82 in 10.0 mi Calm Calm - N/A   Clear
3:16 AM 44.6 °F - 39.2 °F 81% 29.83 in 10.0 mi Calm Calm - N/A   Clear
3:36 AM 44.6 °F - 39.2 °F 81% 29.83 in 10.0 mi Calm Calm - N/A   Clear
3:56 AM 44.6 °F 43.1 °F 39.2 °F 81% 29.83 in 10.0 mi WSW 3.5 mph - N/A   Clear
4:16 AM 42.8 °F 41.1 °F 37.4 °F 81% 29.84 in 10.0 mi WSW 3.5 mph - N/A   Clear
4:36 AM 44.6 °F - 39.2 °F 81% 29.84 in 10.0 mi Calm Calm - N/A   Clear
4:56 AM 44.6 °F - 37.4 °F 76% 29.84 in 10.0 mi Calm Calm - N/A   Clear
5:16 AM 44.6 °F - 39.2 °F 81% 29.84 in 10.0 mi Calm Calm - N/A   Clear
5:36 AM 42.8 °F 41.1 °F 37.4 °F 81% 29.84 in 10.0 mi WSW 3.5 mph - N/A   Clear
5:56 AM 42.8 °F 40.1 °F 37.4 °F 81% 29.84 in 10.0 mi WSW 4.6 mph - N/A   Clear
6:16 AM 44.6 °F - 39.2 °F 81% 29.85 in 10.0 mi Calm Calm - N/A   Scattered Clouds
6:36 AM 44.6 °F 43.1 °F 39.2 °F 81% 29.85 in 10.0 mi WSW 3.5 mph - N/A   Scattered Clouds
6:56 AM 46.4 °F - 41.0 °F 81% 29.85 in 10.0 mi Calm Calm - N/A   Scattered Clouds
7:16 AM 48.2 °F - 42.8 °F 82% 29.85 in 10.0 mi West 4.6 mph - N/A   Scattered Clouds
7:36 AM 48.2 °F - 41.0 °F 76% 29.86 in 10.0 mi West 3.5 mph - N/A   Scattered Clouds
7:56 AM 50.0 °F - 39.2 °F 66% 29.86 in 10.0 mi Calm Calm - N/A   Partly Cloudy
8:16 AM 51.8 °F - 42.8 °F 71% 29.86 in 10.0 mi Calm Calm - N/A   Partly Cloudy
8:36 AM 53.6 °F - 42.8 °F 67% 29.86 in 10.0 mi ENE 4.6 mph - N/A   Partly Cloudy
8:56 AM 53.6 °F - 42.8 °F 67% 29.87 in 10.0 mi Calm Calm - N/A   Partly Cloudy
9:16 AM 53.6 °F - 42.8 °F 67% 29.87 in 10.0 mi ENE 5.8 mph - N/A   Partly Cloudy
9:56 AM 53.6 °F - 42.8 °F 67% 29.88 in 10.0 mi NE 5.8 mph - N/A   Partly Cloudy
10:16 AM 53.6 °F - 42.8 °F 67% 29.87 in 10.0 mi ENE 6.9 mph - N/A   Partly Cloudy
10:36 AM 55.4 °F - 42.8 °F 63% 29.87 in 10.0 mi ENE 5.8 mph - N/A   Partly Cloudy
10:56 AM 55.4 °F - 41.0 °F 58% 29.87 in 10.0 mi NE 5.8 mph - N/A   Clear
11:16 AM 57.2 °F - 42.8 °F 59% 29.87 in 10.0 mi ENE 5.8 mph - N/A   Clear
11:36 AM 57.2 °F - 41.0 °F 55% 29.87 in 10.0 mi NE 8.1 mph - N/A   Clear
11:56 AM 57.2 °F - 42.8 °F 59% 29.88 in 10.0 mi ENE 6.9 mph - N/A   Clear
12:16 PM 57.2 °F - 42.8 °F 59% 29.88 in 10.0 mi ENE 5.8 mph - N/A   Clear
12:36 PM 57.2 °F - 42.8 °F 59% 29.88 in 10.0 mi NE 6.9 mph - N/A   Clear
12:56 PM 59.0 °F - 44.6 °F 59% 29.88 in 10.0 mi NE 6.9 mph - N/A   Clear
1:16 PM 60.8 °F - 42.8 °F 52% 29.89 in 10.0 mi NE 5.8 mph - N/A   Clear
1:36 PM 60.8 °F - 42.8 °F 52% 29.89 in 10.0 mi East 6.9 mph - N/A   Clear
1:56 PM 62.6 °F - 42.8 °F 48% 29.89 in 10.0 mi NE 8.1 mph - N/A   Clear
2:16 PM 60.8 °F - 42.8 °F 52% 29.89 in 10.0 mi NE 8.1 mph - N/A   Clear
2:36 PM 60.8 °F - 41.0 °F 48% 29.89 in 10.0 mi NE 6.9 mph - N/A   Clear
2:56 PM 62.6 °F - 42.8 °F 48% 29.89 in 10.0 mi ENE 5.8 mph - N/A   Clear
3:16 PM 62.6 °F - 42.8 °F 48% 29.89 in 10.0 mi ENE 6.9 mph - N/A   Clear
3:36 PM 64.4 °F - 42.8 °F 45% 29.89 in 10.0 mi NE 5.8 mph - N/A   Clear
3:56 PM 62.6 °F - 41.0 °F 45% 29.88 in 10.0 mi NE 8.1 mph - N/A   Clear
4:16 PM 64.4 °F - 41.0 °F 42% 29.89 in 10.0 mi East 6.9 mph - N/A   Clear
4:36 PM 64.4 °F - 39.2 °F 40% 29.89 in 10.0 mi ENE 8.1 mph - N/A   Clear
4:56 PM 62.6 °F - 39.2 °F 42% 29.89 in 10.0 mi ENE 6.9 mph - N/A   Clear
5:16 PM 62.6 °F - 37.4 °F 39% 29.89 in 10.0 mi ENE 5.8 mph - N/A   Clear
5:36 PM 62.6 °F - 39.2 °F 42% 29.89 in 10.0 mi East 8.1 mph - N/A   Clear
5:56 PM 60.8 °F - 39.2 °F 45% 29.90 in 10.0 mi East 6.9 mph - N/A   Clear
6:16 PM 62.6 °F - 39.2 °F 42% 29.90 in 10.0 mi East 5.8 mph - N/A   Clear
6:36 PM 62.6 °F - 39.2 °F 42% 29.90 in 10.0 mi East 4.6 mph - N/A   Clear
6:56 PM 62.6 °F - 39.2 °F 42% 29.90 in 10.0 mi NE 5.8 mph - N/A   Clear
7:16 PM 60.8 °F - 39.2 °F 45% 29.91 in 10.0 mi ENE 5.8 mph - N/A   Clear
7:36 PM 59.0 °F - 39.2 °F 48% 29.91 in 10.0 mi NE 4.6 mph - N/A   Clear
7:56 PM 57.2 °F - 41.0 °F 55% 29.92 in 10.0 mi ENE 4.6 mph - N/A   Clear
8:16 PM 55.4 °F - 41.0 °F 58% 29.92 in 10.0 mi East 5.8 mph - N/A   Clear
8:36 PM 53.6 °F - 42.8 °F 67% 29.94 in 10.0 mi East 4.6 mph - N/A   Clear
8:56 PM 53.6 °F - 41.0 °F 62% 29.94 in 10.0 mi ESE 5.8 mph - N/A   Clear
9:16 PM 53.6 °F - 39.2 °F 58% 29.94 in 10.0 mi East 5.8 mph - N/A   Clear
9:36 PM 51.8 °F - 41.0 °F 67% 29.95 in 10.0 mi East 3.5 mph - N/A   Clear
9:56 PM 53.6 °F - 39.2 °F 58% 29.95 in 10.0 mi SE 4.6 mph - N/A   Clear
10:16 PM 51.8 °F - 39.2 °F 62% 29.95 in 10.0 mi Calm Calm - N/A   Clear
10:36 PM 50.0 °F - 39.2 °F 66% 29.96 in 10.0 mi SSW 3.5 mph - N/A   Clear
10:56 PM 51.8 °F - 39.2 °F 62% 29.96 in 10.0 mi SW 3.5 mph - N/A   Clear
11:16 PM 51.8 °F - 39.2 °F 62% 29.96 in 10.0 mi SW 3.5 mph - N/A   Clear
11:36 PM 48.2 °F - 39.2 °F 71% 29.96 in 10.0 mi Calm Calm - N/A   Clear
11:56 PM 48.2 °F - 39.2 °F 71% 29.96 in 10.0 mi Calm Calm - N/A   Clear